Probability
0 0 0 0 0 0 1 2 3 4 4 4 4 5 7 10 12 12 12 11 10 10 12 13 12 11 10 10 10 10 10 8 6 4 4 4 4 4 3 2 2 2 3
1 1 0 0 0 1 1 2 3 4 5 6 6 6 8 10 11 11 11 10 10 10 11 11 11 10 10 10 10 9 9 8 7 6 6 5 5 5 3 2 3 4 4
2 2 1 0 1 2 2 2 4 5 6 6 6 6 7 8 8 9 9 9 9 9 9 9 9 9 10 10 10 9 8 8 8 8 8 8 8 6 4 4 5 6 6
1 2 2 1 1 3 3 4 5 7 6 6 5 5 6 6 6 7 8 8 8 7 7 7 8 9 10 10 10 10 9 9 10 10 10 10 11 9 7 6 6 7 7
0 1 2 2 3 4 5 6 7 8 7 7 7 7 6 6 6 8 9 8 6 5 5 6 8 9 10 11 11 11 11 11 11 11 11 11 12 12 11 9 8 8 8
1 1 2 4 5 7 8 9 10 10 10 10 11 11 9 8 9 10 10 8 6 4 4 5 7 8 10 11 12 12 11 11 11 12 12 12 12 13 12 11 10 9 9
3 4 5 7 8 9 10 11 13 14 14 14 15 14 12 10 11 11 10 9 6 5 5 6 6 7 8 10 11 11 10 10 11 13 13 13 12 12 12 11 10 8 8
5 6 8 10 11 11 11 13 16 18 17 16 16 15 13 11 11 11 10 9 8 6 6 7 7 8 7 8 9 9 8 9 10 12 13 13 12 10 9 9 8 7 6
5 7 9 10 11 11 11 13 16 18 17 15 15 14 13 11 11 10 10 9 9 8 6 7 9 9 9 9 9 10 11 11 12 13 14 15 14 12 12 11 10 8 8
6 7 9 10 9 9 10 11 13 15 16 15 14 13 12 11 11 10 9 9 10 10 8 8 10 11 12 12 13 14 15 17 17 17 18 19 18 17 18 17 14 12 14
7 9 10 11 10 8 8 9 10 13 14 14 13 11 11 12 12 12 11 9 9 10 11 11 11 12 13 14 14 14 16 18 19 18 18 18 20 21 21 20 18 18 21
10 11 12 13 12 10 10 10 10 11 12 13 12 12 13 13 13 13 12 9 9 10 11 11 12 11 10 11 11 12 13 15 16 15 15 15 18 20 21 20 21 22 24
15 14 15 16 15 14 13 13 11 10 11 14 15 16 17 16 15 14 12 11 10 10 10 10 9 7 7 9 11 11 12 12 12 12 12 14 17 21 21 21 21 23 23
20 19 19 19 19 20 19 17 14 12 14 17 19 20 19 19 17 16 14 13 13 13 13 12 10 8 8 11 13 14 13 11 11 11 12 14 18 21 22 22 23 24 24
22 23 23 23 24 27 27 24 20 18 19 20 20 21 20 19 19 20 20 19 18 19 21 21 19 16 13 12 14 14 14 14 14 14 14 15 17 18 19 19 20 24 27
25 25 26 27 28 31 33 32 28 25 24 23 23 23 22 21 22 24 25 26 26 26 28 29 27 23 16 12 11 11 13 16 18 18 18 17 16 15 14 12 12 16 20
26 26 27 27 28 29 33 35 33 30 28 26 26 26 25 24 25 26 29 31 32 31 31 30 29 25 19 11 8 7 12 17 21 21 20 19 17 15 14 12 10 10 11
22 23 24 24 23 25 30 34 34 33 31 29 29 29 28 27 27 28 30 33 35 35 34 32 29 26 20 11 6 6 11 18 21 22 22 21 19 15 14 15 15 15 15
15 17 19 20 22 25 30 33 34 35 35 33 32 33 32 31 31 32 34 36 38 38 36 34 31 27 20 11 5 5 12 19 22 22 22 20 18 14 12 16 19 20 20
12 13 15 19 22 26 30 31 32 34 35 33 33 34 36 37 37 38 39 39 40 39 37 34 31 28 22 13 5 6 13 20 22 23 21 17 14 11 10 14 18 21 21
14 13 15 18 20 24 29 31 31 32 31 29 30 33 35 36 38 40 41 40 40 39 35 31 29 27 24 16 7 5 10 17 21 23 22 17 11 7 7 9 14 16 16
15 16 18 20 19 20 27 33 34 33 30 29 30 32 34 34 35 37 38 38 38 36 33 29 26 26 25 19 9 4 5 11 17 21 20 15 8 4 2 4 7 9 9
15 17 21 24 22 21 27 34 36 35 33 33 33 33 33 33 33 34 35 35 34 31 29 27 26 27 27 23 14 6 2 4 10 15 14 8 3 1 1 2 3 5 8
16 18 22 25 25 23 26 32 35 37 37 35 35 34 33 33 33 33 32 31 29 26 25 25 26 28 30 27 21 13 7 6 8 11 10 6 4 3 5 5 5 6 10
19 20 23 26 27 26 26 29 34 37 38 37 35 34 32 32 32 31 28 26 23 21 20 20 22 25 26 22 18 15 12 10 11 12 14 12 11 11 11 10 9 11 13
22 23 24 26 28 28 28 29 32 36 39 39 37 33 31 30 30 29 25 21 19 16 14 15 17 19 18 14 10 10 10 9 10 13 17 18 17 17 16 12 12 15 17
Wind_Speed
8 7 7 6 5 5 4 4 4 4 3 2 2 2 2 2 1 1 2 1 1 1 1 1 1 2 2 2 3 2 3 2 2 2 2 2 3 2 2 3 3 3 4
9 8 8 7 6 6 5 5 5 4 4 3 2 1 1 1 1 0 1 2 1 2 2 2 2 2 2 3 2 2 2 2 2 2 2 2 3 3 2 3 3 3 3
10 10 9 8 7 6 6 5 5 5 4 3 3 2 2 2 2 2 2 1 1 1 1 1 1 1 3 2 2 2 3 2 2 2 2 2 1 0 2 2 2 2 2
11 10 10 9 8 7 7 6 5 5 5 4 3 3 2 2 1 1 1 1 1 1 2 2 2 2 2 2 4 3 3 3 2 2 2 3 2 2 1 2 2 3 3
11 11 10 9 8 8 7 7 6 5 5 4 4 4 3 2 2 2 2 2 2 2 2 2 2 2 2 2 2 2 3 3 3 2 2 2 3 4 3 2 2 2 2
11 10 10 9 8 8 8 7 7 6 5 5 5 4 3 2 2 2 2 2 2 2 2 2 2 3 2 2 3 3 4 3 3 3 3 3 3 3 3 3 3 2 1
11 11 11 10 9 9 8 8 8 7 6 6 5 5 4 4 3 3 2 2 1 1 1 1 2 2 2 2 3 3 3 3 3 4 4 3 3 3 3 4 3 3 2
11 11 11 11 10 10 9 9 8 7 7 6 5 5 5 4 3 3 3 2 2 1 1 2 2 2 3 3 3 3 4 3 4 4 4 4 3 3 3 3 3 4 3
11 11 11 11 10 10 10 9 9 8 7 7 6 5 4 3 2 2 3 2 1 2 1 2 2 3 3 3 3 3 4 3 4 4 4 4 3 3 3 3 4 4 4
10 11 10 10 10 9 9 9 8 8 7 7 6 5 5 4 3 3 2 2 2 2 2 2 3 3 3 3 4 4 3 4 3 3 3 4 4 3 3 3 3 4 4
9 10 10 10 10 9 9 9 8 8 7 7 6 5 5 5 4 3 3 3 3 3 3 3 3 3 3 3 3 4 3 4 4 4 4 4 4 3 3 3 3 3 3
8 9 10 10 9 9 9 9 8 8 7 6 6 6 5 5 5 4 4 3 3 3 3 3 3 3 3 3 4 4 4 4 4 4 4 4 3 4 4 3 3 3 3
8 9 9 9 9 9 8 8 8 7 7 7 7 6 6 5 5 4 4 4 4 3 3 3 3 3 3 3 4 4 4 4 4 4 4 4 4 5 3 4 3 3 3
7 8 8 8 8 7 7 7 8 7 7 7 7 6 5 5 5 4 4 4 4 4 3 3 3 3 4 4 4 4 5 5 4 4 5 5 4 4 5 4 4 3 3
6 7 8 7 7 7 7 7 7 7 6 7 6 6 5 5 5 5 5 5 4 4 4 4 4 4 4 3 4 5 5 5 5 5 5 4 3 4 4 4 3 3 4
5 5 6 6 7 7 7 7 6 6 6 7 7 6 6 6 6 5 5 5 5 5 4 4 4 5 3 0 3 6 5 5 5 5 5 5 5 4 5 4 5 5 5
4 4 5 5 5 6 6 6 6 6 6 6 6 6 6 6 6 6 6 6 6 5 5 5 5 5 2 2 4 6 7 6 6 6 5 5 3 5 5 5 7 7 7
2 2 3 4 4 5 6 6 6 6 6 6 6 6 6 6 6 6 6 6 5 5 5 5 5 4 3 4 4 6 7 7 6 6 6 6 5 4 4 5 5 6 5
1 1 2 2 3 4 5 5 5 5 6 6 6 6 6 6 6 6 6 5 5 5 5 5 5 5 4 4 5 6 6 6 7 7 6 6 6 2 3 6 6 6 5
2 2 1 0 1 2 3 5 5 5 5 5 5 5 5 5 6 6 5 4 4 5 5 4 4 5 4 5 5 7 6 6 6 6 6 6 6 3 4 7 6 6 5
3 2 2 1 0 2 3 4 4 4 4 4 4 4 5 5 5 5 4 4 4 4 4 4 4 5 4 5 6 7 7 6 6 5 5 4 6 6 7 8 7 5 5
3 3 2 2 1 1 3 4 4 3 3 4 4 4 4 5 4 4 4 4 4 5 5 4 4 4 5 5 6 7 8 8 7 6 5 2 5 5 7 7 5 5 6
2 2 2 2 1 2 3 4 3 2 3 4 4 4 4 3 3 4 4 5 5 5 4 4 4 4 4 5 7 9 9 9 7 5 3 2 4 6 7 8 8 7 6
2 2 2 2 2 1 2 2 2 2 3 4 3 3 3 4 3 3 4 4 4 4 4 4 4 4 3 3 3 5 6 9 8 6 5 7 8 8 6 5 7 7 5
3 3 3 2 2 2 2 2 1 2 3 3 3 3 3 3 3 4 3 4 4 3 4 4 4 4 3 1 2 4 4 4 3 4 5 5 5 6 6 6 5 5 5
3 3 3 3 2 2 2 2 2 2 3 3 3 3 3 3 4 4 4 3 4 3 5 5 5 3 1 1 3 4 5 5 4 5 6 5 5 6 6 5 5 6 5
Wind_Direction
165 165 164 160 154 152 154 160 172 169 180 185 195 185 173 177 167 163 141 177 191 180 225 256 141 209 183 196 195 190 189 204 208 234 227 213 209 207 221 227 227 217 222
172 173 173 170 169 164 165 169 175 175 180 170 194 199 222 209 176 165 150 204 196 212 204 204 204 190 189 190 198 205 231 204 195 247 253 224 188 191 196 202 209 224 222
181 179 180 180 177 174 174 174 174 174 179 172 180 171 178 203 175 178 178 187 196 215 255 222 243 215 225 187 205 215 227 230 218 229 272 275 289 297 176 203 208 221 240
189 185 184 185 185 180 175 175 175 180 181 186 194 190 191 186 158 195 142 169 194 210 215 216 219 238 238 199 222 193 225 240 243 215 246 282 320 282 238 205 197 209 229
191 188 187 183 185 181 176 172 173 178 180 187 186 201 207 202 192 189 162 220 194 213 222 217 224 230 236 226 247 227 239 241 254 254 244 240 237 251 264 263 249 227 224
189 187 183 179 181 179 177 173 171 178 181 188 191 202 212 226 226 228 215 212 192 195 199 222 228 237 247 234 233 234 229 248 261 268 262 251 253 254 256 265 261 260 253
184 182 181 181 182 181 179 177 175 179 184 188 194 198 207 216 223 237 225 252 237 200 171 231 239 248 240 243 247 238 250 246 249 253 261 265 265 269 267 269 277 283 275
182 182 182 182 183 182 182 181 180 184 186 189 193 200 209 219 219 232 261 244 257 246 168 214 227 239 243 243 238 247 243 241 245 251 260 268 267 268 265 267 274 274 269
181 183 183 181 184 184 184 185 184 187 189 191 191 199 211 228 233 224 235 241 250 230 211 235 234 238 242 250 247 249 251 248 250 249 239 252 260 262 266 267 270 273 275
180 181 181 181 183 184 182 185 187 189 191 192 198 191 199 206 215 229 226 248 248 254 249 250 245 241 243 245 250 247 241 250 255 264 270 266 261 266 264 262 262 265 271
183 178 178 177 180 183 182 183 187 189 191 195 195 200 197 196 203 213 219 222 233 232 235 236 234 235 241 245 245 257 258 257 259 259 253 261 276 277 272 263 261 258 263
183 176 174 175 178 183 186 185 191 192 191 191 194 196 197 199 202 205 213 217 220 224 227 234 234 236 238 243 244 251 252 253 257 262 261 261 260 263 270 272 267 263 265
176 171 172 177 182 184 187 190 194 196 194 190 194 197 200 203 209 209 206 211 216 218 223 234 240 246 249 249 246 249 253 255 259 264 261 258 259 262 262 261 265 260 252
173 177 177 181 185 186 187 193 196 197 194 195 202 196 198 202 206 207 205 207 210 209 212 225 236 244 248 250 250 249 251 253 256 261 261 259 260 259 258 251 248 255 257
178 184 186 185 186 187 189 194 196 197 197 197 200 196 196 199 205 204 207 208 211 212 210 221 229 239 242 253 263 257 248 250 252 252 255 256 272 291 278 279 266 254 256
184 188 187 190 193 192 192 193 196 196 197 200 201 198 201 202 207 208 209 210 212 218 216 223 230 239 251 313 288 279 261 254 256 256 256 245 232 231 231 259 275 278 265
191 192 197 200 198 196 193 196 195 194 197 201 202 201 203 205 210 213 210 213 214 214 219 225 228 234 232 193 240 262 267 258 259 260 259 260 249 245 250 223 224 238 243
213 211 218 217 209 201 197 202 197 195 196 201 204 204 207 209 210 214 216 220 221 220 223 224 227 234 217 193 229 248 250 257 256 256 257 261 261 264 267 262 255 252 237
295 267 253 229 210 202 193 194 198 195 199 205 208 206 209 211 212 216 218 220 223 225 227 223 224 231 221 200 228 248 245 244 247 247 246 250 250 228 253 258 259 262 256
341 328 323 261 194 207 194 197 200 198 204 210 212 207 207 210 215 217 219 217 221 225 227 218 223 227 230 198 219 243 249 244 244 237 235 232 245 224 235 252 257 256 257
349 335 332 327 239 218 207 208 209 213 220 217 212 210 210 215 216 215 215 215 222 226 231 224 226 228 235 199 206 230 256 258 252 251 243 222 187 218 236 253 255 255 263
348 343 340 327 307 227 214 220 220 221 219 217 212 212 216 221 209 207 212 217 224 224 224 222 232 226 220 224 203 214 242 278 267 262 262 235 172 220 236 241 247 250 251
324 315 306 293 276 237 227 234 239 229 216 216 215 217 220 222 209 208 210 213 217 230 232 228 231 237 226 204 195 208 228 247 259 269 298 291 215 229 228 225 231 233 235
299 297 291 281 272 259 249 247 250 227 221 222 220 216 216 216 209 221 218 224 228 234 235 240 243 242 236 238 207 212 215 219 233 248 231 219 224 235 249 228 216 227 234
295 296 292 286 284 270 252 247 243 233 231 229 227 230 226 220 221 228 233 232 235 247 250 251 250 251 249 265 315 278 259 255 249 253 244 237 228 226 229 231 231 229 228
292 292 289 284 277 263 245 232 228 226 236 236 225 234 236 229 235 234 234 225 247 220 235 265 272 266 261 210 237 255 266 265 246 247 246 242 240 241 240 236 232 229 229